Powrót do katalogu

CZ-4B DEB

AktywnySSO
NORAD 43661·DEBRIS·🇨🇳 China

Wystrzelony Oct 24, 2018 z Taiyuan Satellite Launch Center

Loading…

Następne Przeloty (najbliższe 24 godziny)

TLE

ŚwieżeSource: Space-Track

Epoka: Sep 14, 2026, 12:58 UTC

1 43661U 18081E   26257.54076133  .00000038  00000-0  66378-4 0  9994
2 43661  99.1193 285.6450 0014112  96.3745 263.9021 13.89494886400015

Śledź CZ-4B DEB w czasie rzeczywistym z AllMySat

Download on the App Store